CPA156 YBBN-VHHH

Flight info

Callsign CPA156
Flight time N/A
Altitude 34000
Route WACKO V250 IBUNA Q473 IGUPI V129 EML T13 NTN DCT GTE DCT 11S134E DCT GUTEV/N0495F360 R340 AMN A461 ZAM A583 LEGED/N0490F380 A583 SABNO V542 BETTY
Aircraft B77W/H-SDE1E2E3FGHIJ2J3J4J5M1RWXY/LB1D1

Departure

Time 2026-04-29 10:59
Airport Brisbane International Airport (YBBN)

Arrival

Time N/A
Airport Hong Kong International Airport (VHHH)
Time Latitude Longitude Altitude Speed Heading
2026-04-29 10:22 -27.39984 153.11408 23 ft 0 kts 295°
2026-04-29 10:44 -27.39992 153.11426 23 ft 4 kts 297°
2026-04-29 10:45 -27.40003 153.11451 28 ft 2 kts 295°
2026-04-29 10:45 -27.40010 153.11465 27 ft 4 kts 313°
2026-04-29 10:45 -27.40031 153.11478 25 ft 4 kts
2026-04-29 10:45 -27.40056 153.11472 27 ft 4 kts 22°
2026-04-29 10:46 -27.40073 153.11464 27 ft 4 kts 27°
2026-04-29 10:46 -27.40085 153.11457 25 ft 0 kts 28°
2026-04-29 10:48 -27.40071 153.11464 26 ft 5 kts 28°
2026-04-29 10:49 -27.40037 153.11485 28 ft 6 kts 28°
2026-04-29 10:49 -27.40001 153.11506 26 ft 7 kts 28°
2026-04-29 10:49 -27.39948 153.11536 24 ft 9 kts 26°
2026-04-29 10:49 -27.39890 153.11569 24 ft 9 kts 26°
2026-04-29 10:50 -27.39862 153.11628 26 ft 10 kts 99°
2026-04-29 10:50 -27.39855 153.11697 23 ft 10 kts 46°
2026-04-29 10:50 -27.39795 153.11734 25 ft 10 kts 27°
2026-04-29 10:50 -27.39734 153.11769 24 ft 10 kts 26°
2026-04-29 10:51 -27.39662 153.11810 27 ft 14 kts 27°
2026-04-29 10:51 -27.39562 153.11867 27 ft 17 kts 27°
2026-04-29 10:51 -27.39457 153.11927 23 ft 17 kts 27°
2026-04-29 10:51 -27.39353 153.11986 25 ft 17 kts 27°
2026-04-29 10:52 -27.39248 153.12046 27 ft 17 kts 27°
2026-04-29 10:52 -27.39144 153.12107 25 ft 17 kts 27°
2026-04-29 10:52 -27.39039 153.12166 24 ft 17 kts 27°
2026-04-29 10:52 -27.38936 153.12225 27 ft 17 kts 26°
2026-04-29 10:53 -27.38831 153.12285 23 ft 17 kts 27°
2026-04-29 10:53 -27.38727 153.12345 25 ft 17 kts 27°
2026-04-29 10:53 -27.38622 153.12404 24 ft 17 kts 27°
2026-04-29 10:53 -27.38518 153.12464 23 ft 17 kts 27°
2026-04-29 10:54 -27.38413 153.12524 26 ft 17 kts 27°
2026-04-29 10:54 -27.38309 153.12584 25 ft 17 kts 27°
2026-04-29 10:54 -27.38204 153.12643 23 ft 17 kts 27°
2026-04-29 10:54 -27.38099 153.12703 26 ft 17 kts 27°
2026-04-29 10:55 -27.37995 153.12762 24 ft 17 kts 27°
2026-04-29 10:55 -27.37890 153.12822 25 ft 17 kts 27°
2026-04-29 10:55 -27.37787 153.12882 24 ft 17 kts 27°
2026-04-29 10:55 -27.37683 153.12942 22 ft 17 kts 27°
2026-04-29 10:56 -27.37579 153.13001 27 ft 17 kts 27°
2026-04-29 10:56 -27.37474 153.13061 24 ft 17 kts 27°
2026-04-29 10:56 -27.37370 153.13121 25 ft 16 kts 26°
2026-04-29 10:56 -27.37303 153.13158 25 ft 9 kts 26°
2026-04-29 10:57 -27.37269 153.13204 25 ft 8 kts 88°
2026-04-29 10:57 -27.37287 153.13263 25 ft 8 kts 113°
2026-04-29 10:57 -27.37311 153.13320 24 ft 8 kts 116°
2026-04-29 10:57 -27.37339 153.13374 28 ft 8 kts 127°
2026-04-29 10:58 -27.37382 153.13414 27 ft 8 kts 150°
2026-04-29 10:58 -27.37435 153.13433 28 ft 8 kts 173°
2026-04-29 10:58 -27.37488 153.13414 27 ft 9 kts 207°
2026-04-29 10:58 -27.37646 153.13324 28 ft 51 kts 206°
2026-04-29 10:59 -27.38177 153.13023 28 ft 119 kts 207°
2026-04-29 10:59 -27.39068 153.12516 26 ft 172 kts 207°
2026-04-29 10:59 -27.40183 153.11885 502 ft 177 kts 206°
2026-04-29 10:59 -27.41298 153.11242 1083 ft 183 kts 204°
2026-04-29 11:00 -27.42435 153.10581 1669 ft 186 kts 202°
2026-04-29 11:00 -27.43646 153.09884 1912 ft 206 kts 202°
2026-04-29 11:00 -27.44980 153.09117 2151 ft 226 kts 203°
2026-04-29 11:00 -27.46404 153.08296 2630 ft 236 kts 203°
2026-04-29 11:01 -27.47818 153.07327 3160 ft 242 kts 221°
2026-04-29 11:01 -27.48706 153.05682 3722 ft 254 kts 253°
2026-04-29 11:01 -27.48844 153.03705 4333 ft 256 kts 274°
2026-04-29 11:01 -27.48631 153.01685 4880 ft 261 kts 276°
2026-04-29 11:02 -27.48403 152.99647 5472 ft 264 kts 276°
2026-04-29 11:02 -27.48172 152.97554 5942 ft 273 kts 276°
2026-04-29 11:02 -27.47936 152.95410 6489 ft 278 kts 276°
2026-04-29 11:02 -27.47677 152.93234 7001 ft 284 kts 282°
2026-04-29 11:03 -27.46800 152.91224 7328 ft 293 kts 313°
2026-04-29 11:03 -27.45247 152.89727 7864 ft 295 kts 330°
2026-04-29 11:03 -27.43428 152.88639 8493 ft 297 kts 337°
2026-04-29 11:03 -27.41565 152.87687 9141 ft 299 kts 338°
2026-04-29 11:04 -27.39656 152.86728 9758 ft 301 kts 338°
2026-04-29 11:04 -27.37737 152.85749 10389 ft 304 kts 337°
2026-04-29 11:04 -27.35782 152.84734 10767 ft 318 kts 337°
2026-04-29 11:04 -27.33711 152.83647 10918 ft 339 kts 336°
2026-04-29 11:05 -27.31510 152.82479 11099 ft 360 kts 336°
2026-04-29 11:05 -27.29184 152.81236 11332 ft 379 kts 336°
2026-04-29 11:05 -27.26776 152.79948 11923 ft 387 kts 336°
2026-04-29 11:05 -27.24316 152.78634 12654 ft 393 kts 335°
2026-04-29 11:06 -27.21876 152.77239 13510 ft 394 kts 332°
2026-04-29 11:06 -27.19628 152.75435 14236 ft 401 kts 317°
2026-04-29 11:06 -27.17783 152.73065 14936 ft 407 kts 306°
2026-04-29 11:06 -27.16348 152.70320 15647 ft 409 kts 297°
2026-04-29 11:07 -27.15040 152.67443 16264 ft 416 kts 297°
2026-04-29 11:07 -27.13722 152.64543 17103 ft 417 kts 297°
2026-04-29 11:07 -27.12387 152.61639 17814 ft 423 kts 297°
2026-04-29 11:07 -27.11011 152.58683 18327 ft 431 kts 297°
2026-04-29 11:08 -27.09593 152.55658 18316 ft 441 kts 297°
2026-04-29 11:08 -27.08169 152.52632 18449 ft 434 kts 297°
2026-04-29 11:08 -27.06643 152.49719 19121 ft 432 kts 304°
2026-04-29 11:08 -27.04814 152.47059 19941 ft 431 kts 310°
2026-04-29 11:09 -27.02750 152.44601 20550 ft 436 kts 317°
2026-04-29 11:09 -27.00470 152.42379 21065 ft 441 kts 319°
2026-04-29 11:09 -26.98111 152.40163 21739 ft 443 kts 320°
2026-04-29 11:09 -26.95746 152.37953 22415 ft 444 kts 319°
2026-04-29 11:10 -26.93362 152.35720 22975 ft 449 kts 319°
2026-04-29 11:10 -26.90958 152.33455 23512 ft 454 kts 319°
2026-04-29 11:10 -26.88538 152.31165 24069 ft 457 kts 319°
2026-04-29 11:10 -26.86103 152.28855 24573 ft 459 kts 319°
2026-04-29 11:11 -26.83665 152.26539 25069 ft 461 kts 319°
2026-04-29 11:11 -26.81207 152.24204 25542 ft 464 kts 319°
2026-04-29 11:11 -26.78738 152.21859 26011 ft 467 kts 318°
2026-04-29 11:11 -26.76247 152.19496 26462 ft 469 kts 318°
2026-04-29 11:12 -26.73750 152.17129 26910 ft 472 kts 318°
2026-04-29 11:12 -26.71265 152.14774 27347 ft 475 kts 318°
2026-04-29 11:12 -26.68737 152.12381 27770 ft 477 kts 318°
2026-04-29 11:12 -26.66825 152.10572 28099 ft 479 kts 318°
2026-04-29 11:22 -26.65716 152.09523 28212 ft 481 kts 318°
2026-04-29 11:23 -26.63141 152.07088 28546 ft 485 kts 318°
2026-04-29 11:23 -26.60550 152.04639 28918 ft 488 kts 317°
2026-04-29 11:23 -26.57959 152.02192 29309 ft 489 kts 317°
2026-04-29 11:23 -26.55348 151.99728 29693 ft 491 kts 317°
2026-04-29 11:24 -26.52732 151.97261 30026 ft 493 kts 317°
2026-04-29 11:24 -26.50108 151.94785 30375 ft 494 kts 317°
2026-04-29 11:24 -26.48414 151.93100 30624 ft 492 kts 314°
2026-04-29 11:24 -26.45320 151.89380 31160 ft 487 kts 307°
2026-04-29 11:25 -26.43173 151.86461 31531 ft 486 kts 307°
2026-04-29 11:25 -26.41034 151.83540 31877 ft 485 kts 307°
2026-04-29 11:25 -26.38896 151.80629 32227 ft 485 kts 307°
2026-04-29 11:25 -26.37477 151.78705 32458 ft 484 kts 307°
2026-04-29 11:26 -26.33191 151.72934 33147 ft 482 kts 307°
2026-04-29 11:26 -26.30347 151.69124 33567 ft 481 kts 307°
2026-04-29 11:26 -26.28199 151.66253 33886 ft 481 kts 307°
2026-04-29 11:27 -26.26058 151.63393 34200 ft 480 kts 307°
2026-04-29 11:27 -26.23914 151.60531 34259 ft 482 kts 307°
2026-04-29 11:27 -26.19621 151.54803 34291 ft 481 kts 307°
2026-04-29 11:28 -26.15330 151.49085 34309 ft 481 kts 307°